| time (UTC) | temp C | wind direction | speed KPH | gust KPH | rain 1hr cm | rain 24hr cm | rain mn cm | humidity % | barometer mb |
| 20260502160846 | 17 | 220 | 1.6 | 3.2 | 0.00 | 0.00 | 0.00 | 69 | 1015.6 |
| 20260502151804 | 20 | 0.0 | 1.6 | 0.00 | 0.00 | 0.00 | 55 | 1015.5 | |
| 20260502150733 | 20 | 319 | 0.0 | 1.6 | 0.00 | 0.00 | 0.00 | 55 | 1015.7 |
| 20260502130741 | 19 | 316 | 1.6 | 3.2 | 0.00 | 0.00 | 0.00 | 56 | 1017.8 |
| 20260502123730 | 20 | 291 | 1.6 | 4.8 | 0.00 | 0.00 | 0.00 | 53 | 1018.0 |
| 20260502122720 | 20 | 169 | 1.6 | 3.2 | 0.00 | 0.00 | 0.00 | 49 | 1018.2 |
| 20260502121714 | 20 | 219 | 1.6 | 4.8 | 0.00 | 0.00 | 0.00 | 51 | 1018.2 |
| 20260502120640 | 20 | 287 | 3.2 | 8.0 | 0.00 | 0.00 | 0.00 | 52 | 1018.6 |
| 20260502115712 | 20 | 283 | 1.6 | 1.6 | 0.00 | 0.00 | 0.00 | 52 | 1018.7 |
| 20260502114641 | 18 | 0.0 | 4.8 | 0.00 | 0.00 | 0.00 | 58 | 1019.0 | |
| 20260502113713 | 18 | 313 | 1.6 | 3.2 | 0.00 | 0.00 | 0.00 | 56 | 1018.7 |
| 20260502112642 | 18 | 317 | 4.8 | 8.0 | 0.00 | 0.00 | 0.00 | 56 | 1018.7 |
| 20260502111714 | 18 | 321 | 1.6 | 8.0 | 0.00 | 0.00 | 0.00 | 55 | 1018.9 |
| 20260502110642 | 20 | 250 | 0.0 | 1.6 | 0.00 | 0.00 | 0.00 | 50 | 1019.4 |
| 20260502105715 | 18 | 0.0 | 0.0 | 0.00 | 0.00 | 0.00 | 58 | 1019.4 | |
| 20260502104643 | 18 | 296 | 1.6 | 4.8 | 0.00 | 0.00 | 0.00 | 57 | 1019.7 |
| 20260502103718 | 18 | 0.0 | 0.0 | 0.00 | 0.00 | 0.00 | 57 | 1019.7 | |
| 20260502102705 | 18 | 68 | 1.6 | 8.0 | 0.00 | 0.00 | 0.00 | 58 | 1019.9 |
| 20260502101718 | 17 | 0.0 | 4.8 | 0.00 | 0.00 | 0.00 | 64 | 1019.8 | |
| 20260502100646 | 17 | 0.0 | 1.6 | 0.00 | 0.00 | 0.00 | 64 | 1020.3 | |
| 20260502090647 | 15 | 356 | 0.0 | 1.6 | 0.00 | 0.00 | 0.00 | 70 | 1020.7 |
| 20260502070525 | 10 | 0.0 | 0.0 | 0.00 | 0.00 | 0.00 | 93 | 1021.1 | |
| 20260502065508 | 10 | 0.0 | 0.0 | 0.00 | 0.00 | 0.00 | 95 | 1021.2 | |
| 20260502064453 | 9 | 0.0 | 0.0 | 0.00 | 0.00 | 0.00 | 96 | 1021.2 | |
| 20260502063425 | 9 | 0.0 | 1.6 | 0.00 | 0.00 | 0.00 | 97 | 1021.1 | |
| 20260502062510 | 9 | 0.0 | 0.0 | 0.00 | 0.00 | 0.00 | 97 | 1021.0 | |
| 20260502061446 | 8 | 0.0 | 0.0 | 0.00 | 0.00 | 0.00 | 97 | 1021.3 | |
| 20260502060531 | 8 | 0.0 | 0.0 | 0.00 | 0.00 | 0.00 | 97 | 1021.3 | |
| 20260502055427 | 8 | 0.0 | 0.0 | 0.00 | 0.00 | 0.00 | 98 | 1021.1 | |
| 20260502054412 | 8 | 0.0 | 0.0 | 0.00 | 0.00 | 0.00 | 98 | 1021.1 | |
| 20260502053329 | 7 | 0.0 | 0.0 | 0.00 | 0.00 | 0.00 | 97 | 1021.1 | |
| 20260502052306 | 7 | 0.0 | 0.0 | 0.00 | 0.00 | 0.00 | 97 | 1021.1 | |
| 20260502051312 | 7 | 0.0 | 0.0 | 0.00 | 0.00 | 0.00 | 97 | 1021.1 | |
| 20260502050229 | 7 | 0.0 | 0.0 | 0.00 | 0.00 | 0.00 | 97 | 1021.1 | |
| 20260502045313 | 7 | 0.0 | 0.0 | 0.00 | 0.00 | 0.00 | 97 | 1020.9 | |
| 20260502044310 | 7 | 0.0 | 0.0 | 0.00 | 0.00 | 0.00 | 97 | 1021.0 | |
| 20260502043335 | 7 | 0.0 | 0.0 | 0.00 | 0.00 | 0.00 | 97 | 1021.2 | |
| 20260502042251 | 7 | 0.0 | 0.0 | 0.00 | 0.00 | 0.00 | 97 | 1021.0 | |
| 20260502041315 | 7 | 0.0 | 0.0 | 0.00 | 0.00 | 0.00 | 97 | 1021.1 | |
| 20260502040232 | 7 | 0.0 | 0.0 | 0.00 | 0.00 | 0.00 | 97 | 1021.0 | |
| 20260502035316 | 7 | 0.0 | 0.0 | 0.00 | 0.00 | 0.00 | 97 | 1021.1 | |
| 20260502034253 | 7 | 0.0 | 0.0 | 0.00 | 0.00 | 0.00 | 96 | 1021.1 | |
| 20260502033317 | 8 | 0.0 | 0.0 | 0.00 | 0.00 | 0.00 | 96 | 1021.7 | |
| 20260502032234 | 8 | 0.0 | 0.0 | 0.00 | 0.00 | 0.00 | 96 | 1021.3 | |
| 20260502031318 | 8 | 0.0 | 0.0 | 0.00 | 0.00 | 0.00 | 96 | 1021.4 | |
| 20260502030314 | 8 | 0.0 | 0.0 | 0.00 | 0.00 | 0.00 | 96 | 1021.4 | |
| 20260502025319 | 8 | 0.0 | 0.0 | 0.00 | 0.00 | 0.00 | 96 | 1021.3 | |
| 20260502024236 | 8 | 0.0 | 0.0 | 0.00 | 0.00 | 0.00 | 96 | 1021.3 | |
| 20260502023204 | 8 | 0.0 | 0.0 | 0.00 | 0.00 | 0.00 | 95 | 1021.4 | |
| 20260502022120 | 8 | 0.0 | 0.0 | 0.00 | 0.00 | 0.00 | 95 | 1021.3 | |
| 20260502021204 | 8 | 0.0 | 0.0 | 0.00 | 0.00 | 0.00 | 95 | 1021.7 | |
| 20260502020121 | 8 | 0.0 | 0.0 | 0.00 | 0.00 | 0.00 | 95 | 1021.7 | |
| 20260502015205 | 9 | 0.0 | 0.0 | 0.00 | 0.00 | 0.00 | 95 | 1021.8 | |
| 20260502014122 | 9 | 0.0 | 0.0 | 0.00 | 0.00 | 0.00 | 94 | 1021.7 | |
| 20260502013206 | 9 | 0.0 | 0.0 | 0.00 | 0.00 | 0.00 | 94 | 1021.8 | |
| 20260502012123 | 9 | 0.0 | 0.0 | 0.00 | 0.00 | 0.00 | 93 | 1021.8 | |
| 20260502011207 | 10 | 0.0 | 0.0 | 0.00 | 0.00 | 0.00 | 93 | 1022.0 | |
| 20260502010123 | 10 | 0.0 | 0.0 | 0.00 | 0.00 | 0.00 | 93 | 1022.0 | |
| 20260502005207 | 10 | 0.0 | 0.0 | 0.00 | 0.00 | 0.00 | 92 | 1022.0 | |
| 20260502004124 | 10 | 0.0 | 0.0 | 0.00 | 0.00 | 0.00 | 92 | 1022.2 | |
| 20260502003229 | 11 | 0.0 | 0.0 | 0.00 | 0.00 | 0.00 | 92 | 1022.4 | |
| 20260502002125 | 11 | 0.0 | 0.0 | 0.00 | 0.00 | 0.00 | 92 | 1022.5 | |
| 20260502001229 | 11 | 0.0 | 0.0 | 0.00 | 0.00 | 0.00 | 92 | 1022.4 | |
| 20260502000126 | 11 | 0.0 | 0.0 | 0.00 | 0.00 | 0.00 | 92 | 1022.7 | |
| 20260501235210 | 11 | 0.0 | 0.0 | 0.00 | 0.00 | 0.00 | 91 | 1022.7 | |
| 20260501234126 | 11 | 0.0 | 0.0 | 0.00 | 0.00 | 0.00 | 91 | 1022.8 | |
| 20260501233211 | 11 | 0.0 | 0.0 | 0.00 | 0.00 | 0.00 | 91 | 1022.7 | |
| 20260501232127 | 12 | 0.0 | 0.0 | 0.00 | 0.00 | 0.00 | 91 | 1022.6 | |
| 20260501231212 | 12 | 0.0 | 0.0 | 0.00 | 0.00 | 0.00 | 91 | 1022.8 | |
| 20260501230139 | 12 | 0.0 | 0.0 | 0.00 | 0.00 | 0.00 | 90 | 1022.7 | |
| 20260501225128 | 12 | 0.0 | 0.0 | 0.00 | 0.00 | 0.00 | 88 | 1022.6 | |
| 20260501224113 | 12 | 0.0 | 0.0 | 0.00 | 0.00 | 0.00 | 87 | 1022.7 | |
| 20260501223050 | 13 | 0.0 | 0.0 | 0.00 | 0.00 | 0.00 | 86 | 1022.6 | |
| 20260501222114 | 13 | 0.0 | 0.0 | 0.00 | 0.00 | 0.00 | 86 | 1022.6 | |
| 20260501221031 | 14 | 0.0 | 0.0 | 0.00 | 0.00 | 0.00 | 85 | 1022.6 | |
| 20260501220115 | 14 | 0.0 | 0.0 | 0.00 | 0.00 | 0.00 | 86 | 1022.6 | |
| 20260501215031 | 14 | 0.0 | 0.0 | 0.00 | 0.00 | 0.00 | 86 | 1022.5 | |
| 20260501214116 | 14 | 0.0 | 0.0 | 0.00 | 0.00 | 0.00 | 86 | 1022.5 | |
| 20260501213032 | 14 | 0.0 | 0.0 | 0.00 | 0.00 | 0.00 | 85 | 1022.6 | |
| 20260501212036 | 14 | 0.0 | 0.0 | 0.00 | 0.00 | 0.00 | 84 | 1022.4 | |
| 20260501210933 | 15 | 0.0 | 0.0 | 0.00 | 0.00 | 0.00 | 84 | 1022.3 | |
| 20260501210018 | 15 | 0.0 | 0.0 | 0.00 | 0.00 | 0.00 | 84 | 1022.5 | |
| 20260501204934 | 15 | 0.0 | 0.0 | 0.00 | 0.00 | 0.00 | 83 | 1022.4 | |
| 20260501204018 | 15 | 0.0 | 0.0 | 0.00 | 0.00 | 0.00 | 83 | 1022.6 | |
| 20260501202935 | 15 | 0.0 | 0.0 | 0.00 | 0.00 | 0.00 | 83 | 1022.6 | |
| 20260501202019 | 15 | 0.0 | 0.0 | 0.00 | 0.00 | 0.00 | 84 | 1022.6 | |
| 20260501200935 | 15 | 0.0 | 0.0 | 0.00 | 0.00 | 0.00 | 84 | 1022.4 | |
| 20260501200020 | 15 | 0.0 | 0.0 | 0.00 | 0.00 | 0.00 | 84 | 1022.5 | |
| 20260501194936 | 15 | 0.0 | 1.6 | 0.00 | 0.00 | 0.00 | 83 | 1022.2 | |
| 20260501193933 | 15 | 0.0 | 1.6 | 0.00 | 0.00 | 0.00 | 83 | 1022.1 | |
| 20260501192857 | 15 | 0.0 | 1.6 | 0.00 | 0.00 | 0.00 | 82 | 1022.0 | |
| 20260501191942 | 16 | 0.0 | 1.6 | 0.00 | 0.00 | 0.00 | 82 | 1022.1 | |
| 20260501190838 | 16 | 0.0 | 1.6 | 0.00 | 0.00 | 0.00 | 82 | 1022.0 | |
| 20260501185922 | 16 | 0.0 | 0.0 | 0.00 | 0.00 | 0.00 | 81 | 1021.9 | |
| 20260501184839 | 16 | 0.0 | 1.6 | 0.00 | 0.00 | 0.00 | 80 | 1022.1 | |
| 20260501183923 | 17 | 0.0 | 1.6 | 0.00 | 0.00 | 0.00 | 79 | 1021.8 | |
| 20260501182840 | 17 | 147 | 0.0 | 1.6 | 0.00 | 0.00 | 0.00 | 78 | 1022.0 |
| 20260501181944 | 17 | 0.0 | 1.6 | 0.00 | 0.00 | 0.00 | 77 | 1021.9 | |
| 20260501180901 | 18 | 0.0 | 1.6 | 0.00 | 0.00 | 0.00 | 76 | 1021.8 | |
| 20260501175926 | 18 | 119 | 0.0 | 1.6 | 0.00 | 0.00 | 0.00 | 74 | 1021.7 |
| 20260501174841 | 19 | 140 | 1.6 | 1.6 | 0.00 | 0.00 | 0.00 | 68 | 1021.8 |
| 20260501173926 | 19 | 0.0 | 3.2 | 0.00 | 0.00 | 0.00 | 67 | 1021.7 | |
| 20260501172846 | 19 | 0.0 | 1.6 | 0.00 | 0.00 | 0.00 | 68 | 1021.5 | |
| 20260501171759 | 19 | 201 | 1.6 | 4.8 | 0.00 | 0.00 | 0.00 | 66 | 1021.5 |
| 20260501170742 | 20 | 250 | 1.6 | 3.2 | 0.00 | 0.00 | 0.00 | 66 | 1021.4 |
| 20260501165827 | 20 | 172 | 0.0 | 4.8 | 0.00 | 0.00 | 0.00 | 65 | 1021.7 |
| 20260501164743 | 20 | 7 | 1.6 | 9.7 | 0.00 | 0.00 | 0.00 | 65 | 1021.5 |
| 20260501163848 | 20 | 237 | 1.6 | 3.2 | 0.00 | 0.00 | 0.00 | 67 | 1021.5 |
| 20260501162744 | 20 | 272 | 3.2 | 4.8 | 0.00 | 0.00 | 0.00 | 67 | 1021.4 |
| 20260501161829 | 20 | 114 | 3.2 | 4.8 | 0.00 | 0.00 | 0.00 | 67 | 1021.8 |